Overview Statistics Trail Chart Weather Telemetry Raw packets
 

This is the latest recevied weather packets stored in our database for station/object KC1IUC-15. If no packets are shown the sender has not sent any weather packets the latest 10 day(s).

<< 109 110 111 112 113 114 115 >>
Time Temp. Humidity Pressure Rain* Wind** Luminosity Snow
1787789104 21.11° C 78% 1016.4 hPa 0 mm - 0 W/m² -
1787788807 21.11° C 77% 1016.7 hPa 0 mm - 0 W/m² -
1787788504 21.67° C 75% 1016.1 hPa 0 mm - 0 W/m² -
1787788204 22.22° C 74% 1016.1 hPa 0 mm - 0 W/m² -
1787787904 22.22° C 72% 1016.1 hPa 0 mm - 0 W/m² -
1787787604 22.78° C 71% 1016.1 hPa 0 mm - 1 W/m² -
1787787304 22.78° C 70% 1016.1 hPa 0 mm - 1 W/m² -
1787787004 23.33° C 69% 1016.1 hPa 0 mm - 3 W/m² -
1787786704 23.33° C 68% 1015.7 hPa 0 mm - 5 W/m² -
1787786404 23.33° C 68% 1016.1 hPa 0 mm - 8 W/m² -
1787786104 23.89° C 68% 1016.1 hPa 0 mm - 10 W/m² -
1787785804 23.89° C 67% 1016.1 hPa 0 mm - 13 W/m² -
1787785504 24.44° C 66% 1015.7 hPa 0 mm - 15 W/m² -
1787785204 24.44° C 65% 1016.1 hPa 0 mm - 20 W/m² -
1787784904 24.44° C 64% 1016.1 hPa 0 mm - 26 W/m² -
1787784604 25° C 61% 1016.1 hPa 0 mm - 28 W/m² -
1787784304 25.56° C 60% 1015.7 hPa 0 mm - 28 W/m² -
1787784004 26.11° C 56% 1016.1 hPa 0 mm - 50 W/m² -
1787783704 25.56° C 55% 1016.1 hPa 0 mm - 68 W/m² -
1787783404 25.56° C 56% 1015.7 hPa 0 mm - 60 W/m² -
1787783104 25.56° C 55% 1016.4 hPa 0 mm - 51 W/m² -
1787782804 25.56° C 56% 1016.1 hPa 0 mm - 59 W/m² -
1787782504 25.56° C 55% 1015.7 hPa 0 mm - 86 W/m² -
1787782204 25.56° C 55% 1015.7 hPa 0 mm - 71 W/m² -
1787781904 25.56° C 56% 1015.7 hPa 0 mm - 68 W/m² -

* Rain latest hour (hover to see other rain measurements)
** Current wind speed in m/s (hover to see current wind gust speed)